sat.trackr.live / text

‹ back to catalog

STARLINK-6211

NORAD 57059 · 2023-088M

PAYLOAD ACTIVE UNKNOWN

§ Identity

Operator
Country
US
Launch date
2023-06-22
Launch site
AFWTR
Launch vehicle
Mass (kg)
RCS (m²)

Purposes: comms

External: N2YO · Heavens-Above · Gunter

§ Orbital elements

Epoch: 2026-09-20T21:58:00.102144Z

Period
94.27 min
Inclination
43.0017°
Eccentricity
0.0001787
Mean motion
15.27576066 rev/d
Perigee alt
481.8 km
Apogee alt
484.3 km
Semi-major
6,861.2 km
B*
2.3440e-5
RAAN
87.7797°
Arg perigee
273.3022°
Mean anomaly
86.7625°
Rev number
18,019

§ Raw data

STARLINK-62111 57059U 23088M   26263.91527896  .00000383  00000+0  23440-4 0  99932 57059  43.0017  87.7797 0001787 273.3022  86.7625 15.27576066180198

JSON: /api/v1/satellites/57059 · /tle

For live sub-satellite position, see the globe view (requires WebGL).

§ Visibility from observer

Set your observer location to see the next 7 days of passes ≥ 10°. The values pass through the URL so the page stays shareable.

No JS? Fill the form by hand. The geolocation button needs JavaScript.